Hourly Data Report for May 11, 2020

STE-ANNE-DE-BELLEVUE 1
QUEBEC
Current Station Operator: ECCC - MSC

45°25'38.000" N
73°55'45.000" W
39.00 m
702FHL8
71377
WVQ

Download Data

Hourly Data (May 2020)
Hourly Data Report for May 11, 2020
TIME
LST
Temp Definition
°C
Dew Point Definition
°C
Rel Hum Definition
%
Precip. Amount Definition
mm

Wind Dir Definition
10's deg

Wind Spd Definition
km/h
Visibility Definition
km
Stn Press Definition
kPa
Hmdx Definition


Wind Chill Definition


Weather Definition


00:00 2.9 -0.3 80 0.0 27 6   100.63     LegendNANA
01:00 3.5 -2.8 64 0.0 32 8   100.63     LegendNANA
02:00 3.3 -2.9 63 0.0 31 6   100.63     LegendNANA
03:00 0.9 -4.3 69 0.0 28 4   100.65     LegendNANA
04:00 2.5 -2.9 67 0.0 30 9   100.67     LegendNANA
05:00 2.5 -3.1 67 0.0 30 7   100.70     LegendNANA
06:00 4.0 -2.6 62 0.0 30 10   100.74     LegendNANA
07:00 3.9 -3.6 58 0.0 29 11   100.71     LegendNANA
08:00 5.7 -2.1 57 0.0 34 11   100.69     LegendNANA
09:00 5.3 -4.2 50 0.0 30 12   100.70     LegendNANA
10:00 7.2 -2.5 50 0.0 34 8   100.65     LegendNANA
11:00 7.9 -2.6 47 0.0 27 9   100.61     LegendNANA
12:00 8.4 -2.5 46 0.0 23 9   100.56     LegendNANA
13:00 8.5 -2.0 48 0.0 28 10   100.53     LegendNANA
14:00 8.0 -2.0 49 0.0 22 11   100.48     LegendNANA
15:00 7.0 -0.4 59 0.0 22 12   100.45     LegendNANA
16:00 6.8 0.0 61 0.0 22 14   100.44     LegendNANA
17:00 5.9 0.5 68 0.0 23 20   100.43     LegendNANA
18:00 5.6 1.3 74 0.0 23 17   100.41     LegendNANA
19:00 5.5 1.5 75 0.0 23 17   100.43     LegendNANA
20:00 5.8 1.8 75 0.0 25 19   100.47     LegendNANA
21:00 6.4 1.1 69 0.0 26 13   100.54     LegendNANA
22:00 8.0 -2.8 46 0.0 31 11   100.56     LegendNANA
23:00 7.2 -5.6 40 0.0 31 19   100.60     LegendNANA

Notes on Data Quality.

Legend

  • E = Estimated
  • M = Missing
  • NA = Not Available*
  • [empty] = Indicates an unobserved value
Date modified: